New Paris, IN

8:25 PM EST on February 24, 2017 (GMT -0500)
Goshen Municipal

Weather History for KGSH - February, 2013

Change the Weather History Date:

Friday, February 15, 2013

  Actual Average Record
Temperature  
Mean Temperature 26 °F -  
Max Temperature 30 °F 34 °F 67 °F (1954)
Min Temperature 21 °F 21 °F -3 °F (1963)
Degree Days  
Heating Degree Days 40    
Moisture  
Dew Point 19 °F    
Average Humidity 70    
Maximum Humidity 80    
Minimum Humidity 52    
Precipitation  
Precipitation 0.00 in - - ()
Sea Level Pressure  
Sea Level Pressure 30.08 in    
Wind  
Wind Speed 9 mph (NW)    
Max Wind Speed 17 mph    
Max Gust Speed 18 mph    
Visibility 9 miles    
Events Snow    
Averages and records for this station are not official NWS values.
T = Trace of Precipitation, MM = Missing Value Source: NWS Daily Summary

Daily Weather History Graph

Daily Weather History Graph

Search for Another Location

Airport or City:

Trip Planner

Search our weather history database for the weather conditions in past years. The results will help you decide how hot, cold, wet, or windy it might be!

Date:

Astronomy

Feb. 15, 2013 Rise Set
Actual Time 7:37 AM EST 6:17 PM EST
Civil Twilight 7:09 AM EST 6:45 PM EST
Nautical Twilight 6:37 AM EST 7:18 PM EST
Astronomical Twilight 6:05 AM EST 7:50 PM EST
Moon 10:08 AM EST (2/15) No Moon Set
Length of Visible Light 11h 36m
Length of Day
10h 39m
Waxing Crescent, 30% of the Moon is Illuminated
Feb 15
Waxing Crescent
Feb 17
First Quarter
Feb 25
Full
Mar 4
Last Quarter
Mar 11
New

Hourly Weather History & Observations

Time (EST) Temp. Windchill Dew Point Humidity Pressure Visibility Wind Dir Wind Speed Gust Speed Precip Events Conditions
12:53 AM 30.9 °F 22.8 °F 21.0 °F 67% 29.95 in 10.0 mi West 9.2 mph - N/A   Mostly Cloudy
1:53 AM 30.0 °F 22.4 °F 21.0 °F 69% 29.96 in 10.0 mi WSW 8.1 mph - N/A   Partly Cloudy
2:53 AM 30.9 °F 22.8 °F 21.9 °F 69% 29.96 in 10.0 mi West 9.2 mph - N/A   Overcast
3:53 AM 28.9 °F 20.4 °F 21.0 °F 72% 29.98 in 10.0 mi West 9.2 mph - N/A   Clear
4:53 AM 30.0 °F 23.2 °F 23.0 °F 75% 29.98 in 10.0 mi West 6.9 mph - N/A   Overcast
5:17 AM 30.2 °F 23.4 °F 23.0 °F 75% 29.97 in 10.0 mi West 6.9 mph - N/A   Overcast
5:53 AM 30.0 °F 21.7 °F 23.0 °F 75% 30.01 in 10.0 mi North 9.2 mph - N/A   Overcast
6:53 AM 30.0 °F 25.2 °F 23.0 °F 75% 30.03 in 10.0 mi NNW 4.6 mph - 0.00 in   Overcast
7:50 AM 28.4 °F 22.2 °F 23.0 °F 80% 30.02 in 10.0 mi NNW 5.8 mph - 0.00 in   Overcast
7:53 AM 28.9 °F 21.1 °F 23.0 °F 78% 30.05 in 10.0 mi NNW 8.1 mph - 0.00 in   Overcast
8:44 AM 28.4 °F 18.5 °F 23.0 °F 80% 30.05 in 5.0 mi NNE 11.5 mph - 0.00 in Snow Light Snow
8:53 AM 28.0 °F 18.1 °F 21.0 °F 75% 30.08 in 4.0 mi North 11.5 mph - 0.00 in Snow Light Snow
9:21 AM 28.4 °F 19.1 °F 21.2 °F 74% 30.07 in 6.0 mi North 10.4 mph - 0.00 in Snow Light Snow
9:53 AM 28.0 °F 18.1 °F 21.0 °F 75% 30.10 in 9.0 mi North 11.5 mph - 0.00 in   Overcast
10:32 AM 28.4 °F 19.1 °F 19.4 °F 69% 30.09 in 7.0 mi North 10.4 mph - 0.00 in   Overcast
10:48 AM 28.4 °F 18.5 °F 21.2 °F 74% 30.09 in 9.0 mi North 11.5 mph - 0.00 in   Overcast
10:53 AM 28.9 °F 18.6 °F 19.0 °F 67% 30.12 in 10.0 mi North 12.7 mph - 0.00 in   Overcast
11:31 AM 28.4 °F 20.4 °F 19.4 °F 69% 30.09 in 10.0 mi North 8.1 mph - N/A   Overcast
11:53 AM 30.0 °F 20.0 °F 19.9 °F 66% 30.12 in 9.0 mi NNW 12.7 mph 18.4 mph 0.00 in Snow Light Snow
12:08 PM 28.4 °F 20.4 °F 19.4 °F 69% 30.10 in 7.0 mi North 8.1 mph - 0.00 in Snow Light Snow
12:15 PM 28.4 °F 18.5 °F 19.4 °F 69% 30.10 in 5.0 mi NW 11.5 mph - 0.00 in Snow Light Snow
12:40 PM 28.4 °F 19.1 °F 21.2 °F 74% 30.10 in 2.0 mi NNW 10.4 mph - 0.00 in Snow Light Snow
12:53 PM 28.0 °F 20.8 °F 21.9 °F 78% 30.13 in 3.0 mi NW 6.9 mph - 0.00 in Snow Light Snow
1:34 PM 28.4 °F 18.5 °F 21.2 °F 74% 30.09 in 10.0 mi NW 11.5 mph - 0.00 in   Overcast
1:53 PM 28.9 °F 18.2 °F 18.0 °F 64% 30.12 in 10.0 mi NW 13.8 mph - 0.00 in   Overcast
2:53 PM 30.9 °F 19.4 °F 15.1 °F 52% 30.12 in 10.0 mi WNW 17.3 mph - N/A   Mostly Cloudy
3:53 PM 28.9 °F 19.2 °F 15.1 °F 56% 30.14 in 10.0 mi NW 11.5 mph - N/A   Overcast
4:53 PM 28.9 °F 20.4 °F 16.0 °F 58% 30.15 in 10.0 mi NNW 9.2 mph - N/A   Overcast
5:53 PM 27.0 °F 15.6 °F 14.0 °F 58% 30.16 in 10.0 mi WNW 13.8 mph - N/A   Mostly Cloudy
6:53 PM 26.1 °F 16.8 °F 15.1 °F 63% 30.17 in 10.0 mi WNW 9.2 mph - N/A   Mostly Cloudy
7:53 PM 23.0 °F 17.0 °F 14.0 °F 68% 30.18 in 10.0 mi NW 4.6 mph - N/A   Clear
8:53 PM 21.9 °F - 15.1 °F 75% 30.18 in 10.0 mi Calm Calm - N/A   Scattered Clouds
9:53 PM 23.0 °F 18.4 °F 15.1 °F 72% 30.18 in 10.0 mi West 3.5 mph - N/A   Overcast
10:53 PM 24.1 °F - 14.0 °F 65% 30.16 in 10.0 mi Calm Calm - N/A   Mostly Cloudy
11:53 PM 24.1 °F - 16.0 °F 71% 30.14 in 10.0 mi Calm Calm - N/A   Overcast